Regional Weather Roundup
Issued by NWS

Home | Current Version | Previous Version | Graphics & Text | Print | Product List | Glossary On
Versions: 1 2 3 4 5 6 7 8 9 10 11 12 13 14 15 16 17 18 19 20 21 22 23 24 25 26 27 28 29 30 31 32 33 34 35 36 37 38 39 40 41 42 43 44 45 46 47 48 49 50
000
ASUS43 KMKX 210900
RWRWI

WISCONSIN REGIONAL WEATHER ROUNDUP
NATIONAL WEATHER SERVICE MILWAUKEE/SULLIVAN WI
400 AM CDT SAT OCT 21 2017

NOTE: "FAIR" INDICATES FEW OR NO CLOUDS BELOW 12,000 FEET WITH NO
SIGNIFICANT WEATHER AND/OR OBSTRUCTIONS TO VISIBILITY.

WIZ001-002-006>008-014>016-023>028-211000-
NORTHWEST WISCONSIN

CITY           SKY/WX    TMP DP  RH WIND       PRES   REMARKS
SUPERIOR ARPT  CLOUDY    64  51  64 S9G17     29.69F
ASHLAND        CLOUDY    64  47  53 S10G20    29.75F
HAYWARD        CLOUDY    62  47  57 S13       29.77F
SIREN          CLOUDY    63  50  62 S15G22    29.73F
CUMBERLAND     CLOUDY    57  46  67 S9        29.77F
RICE LAKE      CLOUDY    62  48  61 SE10      29.79F
CHETEK         CLOUDY    62  48  61 SE10      29.79F
LADYSMITH      CLOUDY    62  46  55 SE7       29.83F
EAU CLAIRE     NOT AVBL
MENOMONIE      CLOUDY    64  49  57 S16       29.78F
NEW RICHMOND   CLOUDY    62  49  62 S13G21    29.74F
OSCEOLA        MOCLDY    63  51  65 S10G18    29.75F
$$

WIZ003>005-009-010-017-018-211000-
NORTH CENTRAL WISCONSIN

CITY           SKY/WX    TMP DP  RH WIND       PRES   REMARKS
MANITOWISH WTR CLOUDY    61  44  53 S7        29.85F
ARBOR VITAE    CLOUDY    62  46  56 S10       29.87S
WOODRUFF       CLOUDY    62  46  56 S10       29.87S
RHINELANDER    CLOUDY    61  45  55 S10G20    29.89F
EAGLE RIVER    NOT AVBL
LAND O LAKES   CLOUDY    60  43  53 S7        29.89F
PHILLIPS       MOCLDY    60  45  57 S10       29.83F
TOMAHAWK       CLOUDY    56  44  64 S3        29.88F
MEDFORD        CLOUDY    57  46  67 S9        29.86F
MERRILL        PTCLDY    61  46  56 S6        29.89F
$$

WIZ029-030-035-036-043>047-211000-
CENTRAL WISCONSIN

CITY           SKY/WX    TMP DP  RH WIND       PRES   REMARKS
WAUSAU         CLOUDY    61  45  55 S12       29.88F
MOSINEE        CLOUDY    59  45  58 S12       29.91S
MARSHFIELD     MOCLDY    58  44  60 S8        29.88S
STEVENS POINT  PTCLDY    58  44  58 S5        29.91F
WAUPACA        CLOUDY    62  47  57 SE6       29.94S
WAUTOMA        CLOUDY    62  47  57 S7          N/A
WISC RAPIDS    PTCLDY    63  46  54 S7        29.91F
CAMP DOUGLAS   NOT AVBL
$$

WIZ011>013-019>022-031-037>040-048>050-211000-
NORTHEAST WISCONSIN

CITY           SKY/WX    TMP DP  RH WIND       PRES   REMARKS
ANTIGO         PTCLDY    51  46  83 SE8       29.92F
SHAWANO        CLOUDY    64  46  52 S3        29.93S
OCONTO         CLOUDY    63  47  56 S6        29.94S
STURGEON BAY   PTCLDY    57  50  77 S10       29.97S
GREEN BAY      PTCLDY    64  48  56 S9        29.96F
MANITOWOC      CLOUDY    56  50  80 S3        29.99F
APPLETON       CLOUDY    61  43  51 S9        29.95F
CLINTONVILLE   CLOUDY    61  46  59 S7        29.93F
OSHKOSH        PTCLDY    61  48  62 S10       29.96S
$$

WIZ032>034-041-042-053>061-211000-
SOUTHWEST WISCONSIN

CITY           SKY/WX    TMP DP  RH WIND       PRES   REMARKS
LA CROSSE      MOCLDY    65  50  58 S15       29.83F
SPARTA         CLOUDY    62  48  60 S10       29.88F
VIROQUA        MOCLDY    60  49  67 S15       29.88F
BOSCOBEL       CLEAR     64  49  57 S6        29.91F
PRAIRIE DU CHI CLEAR     64  48  55 S8G17     29.88F
PLATTEVILLE    CLEAR     61  51  70 S13       29.94F
$$

WIZ056-057-062-063-064-067-068-211000-
SOUTH CENTRAL WISCONSIN

CITY           SKY/WX    TMP DP  RH WIND       PRES   REMARKS
REEDSBURG      CLOUDY    63  49  60 S14G21    29.91F
BARABOO/DELLS  CLOUDY    63  46  54 S13       29.93F
LONE ROCK      NOT AVBL
MINERAL POINT  MOCLDY    61  50  67 SE8       29.95F
MADISON        MOCLDY    62  49  62 S7        29.97S
MIDDLETON      PTCLDY    63  49  59 S10G16    29.96F
WATERTOWN      CLOUDY    60  49  68 S5        29.98F
MONROE         CLOUDY    61  48  63 S14       29.97F
JANESVILLE     PTCLDY    63  46  55 S8        29.99F
$$

WIZ051-052-058>065-066-070>072-211000-
SOUTHEAST WISCONSIN

CITY           SKY/WX    TMP DP  RH WIND       PRES   REMARKS
MILWAUKEE      CLOUDY    65  48  54 S9        30.01F
WAUKESHA       CLOUDY    61  45  55 S6        30.02S
MILWAUKEE/TIMM MOCLDY    63  43  48 S8        30.02S
RACINE         MOCLDY    65  48  54 SW10G20   30.04R
BURLINGTON     PTCLDY    62  50  65 S10G16    30.02S
KENOSHA        CLOUDY    63  48  58 S10       30.03R
FOND DU LAC    CLOUDY    62  45  53 S10       29.96F
SHEBOYGAN      CLOUDY    61  49  64 S7        29.99F
WEST BEND      CLOUDY    61  45  55 S3        30.00F
JUNEAU         CLOUDY    58  47  67 S9        29.99F
$$

LSZ147-162-211000-
LAKE SUPERIOR

STATION/POSITION TIME  TEMP    WIND        PRES    WAVE
                       AIR SEA DIR/SP/G            HT/PER
                 (UTC) (F)     (DEG/KT/KT) (MB)    (FT/S)
W MID LAKE BUOY  0750   57 52              1008.0S   2/ 5
DEVILS ISLAND    0800   66     190/ 10/ 13 1007.3R
PORT WING        0840          170/ 14/ 22 1006.1F
SAXON HARBOR     0830   67     190/ 13/ 22 1007.1F
$$

LMZ867-665-643>646-211000-
LAKE MICHIGAN

STATION/POSITION TIME  TEMP    WIND        PRES    WAVE
                       AIR SEA DIR/SP/G            HT/PER
                 (UTC) (F)     (DEG/KT/KT) (MB)    (FT/S)
S GREEN BAY BUOY 0830   62 58  180/ 10/ 14 1014.2R
N MID LAKE BUOY  0750   61 58  190/ 17/ 21 1015.6R   4/ 6
NORTHPORT PIER   0840   58     160/  6/ 12 1014.6F
KEWAUNEE LAKESHO 0830   52     170/ 10/ 11 1014.6S
SHEBOYGAN LAKESH 0800   57     180/ 19/ 19 1015.6F
PORT WASHINGTON  0840   56     190/  4/  6 1016.6F
ATWATER BUOY     0709   59 53  160/  8/ 10 1016.7R
MILWAUKEE LAKESH 0840   65     190/  7/  8   N/A
S MID LAKE BUOY  0750   63 61  190/ 16/ 17 1017.8R   2/ 4
KENOSHA   LAKESH 0800   66     200/  9/ 12 1016.6
$$

TC  - TEMPERATURE IN CELSIUS
VSB - VISIBILITY IN STATUTE MILES
WCI - WIND CHILL INDEX
HX  - HEAT INDEX





USA.gov is the U.S. government's official web portal to all federal, state and local government web resources and services.